TimePDT,TemperatureF,Dew PointF,Humidity,Sea Level PressureIn,VisibilityMPH,Wind Direction,Wind SpeedMPH,Gust SpeedMPH,PrecipitationIn,Events,Conditions,WindDirDegrees,DateUTC
12:53 AM,61.0,54.0,78,30.00,10.0,Calm,Calm,-,N/A,,Clear,0,2013-09-23 07:53:00
1:53 AM,60.1,54.0,80,30.00,10.0,Calm,Calm,-,N/A,,Clear,0,2013-09-23 08:53:00
2:53 AM,57.9,53.1,84,29.99,10.0,Calm,Calm,-,N/A,,Clear,0,2013-09-23 09:53:00
3:53 AM,55.9,52.0,87,29.99,10.0,Calm,Calm,-,N/A,,Clear,0,2013-09-23 10:53:00
4:53 AM,55.9,52.0,87,29.99,10.0,Calm,Calm,-,N/A,,Clear,0,2013-09-23 11:53:00
5:53 AM,55.9,51.1,84,29.99,10.0,Calm,Calm,-,N/A,,Clear,0,2013-09-23 12:53:00
6:53 AM,55.0,51.1,86,30.00,10.0,Calm,Calm,-,N/A,,Clear,0,2013-09-23 13:53:00
7:53 AM,57.0,51.1,81,30.01,10.0,Calm,Calm,-,N/A,,Clear,0,2013-09-23 14:53:00
8:53 AM,61.0,52.0,72,30.02,10.0,Calm,Calm,-,N/A,,Clear,0,2013-09-23 15:53:00
9:53 AM,64.9,53.1,65,30.02,10.0,Calm,Calm,-,N/A,,Clear,0,2013-09-23 16:53:00
10:53 AM,69.1,52.0,54,30.02,10.0,Calm,Calm,-,N/A,,Clear,0,2013-09-23 17:53:00
11:53 AM,75.0,52.0,44,30.00,10.0,Variable,3.5,-,N/A,,Clear,0,2013-09-23 18:53:00
12:53 PM,79.0,53.1,40,29.98,10.0,NW,6.9,-,N/A,,Clear,320,2013-09-23 19:53:00
1:53 PM,80.1,53.1,39,29.96,10.0,Calm,Calm,-,N/A,,Clear,0,2013-09-23 20:53:00
2:53 PM,82.9,52.0,34,29.94,10.0,South,4.6,-,N/A,,Clear,190,2013-09-23 21:53:00
3:53 PM,84.0,52.0,33,29.91,10.0,South,5.8,-,N/A,,Clear,180,2013-09-23 22:53:00
4:53 PM,84.0,53.1,34,29.91,10.0,West,15.0,-,N/A,,Clear,270,2013-09-23 23:53:00
5:53 PM,79.0,55.9,45,29.91,10.0,West,11.5,-,N/A,,Clear,270,2013-09-24 00:53:00
6:53 PM,75.0,57.9,55,29.92,10.0,West,11.5,-,N/A,,Clear,270,2013-09-24 01:53:00
7:53 PM,71.1,57.9,63,29.93,10.0,West,6.9,-,N/A,,Clear,270,2013-09-24 02:53:00
8:53 PM,70.0,59.0,68,29.95,10.0,Calm,Calm,-,N/A,,Clear,0,2013-09-24 03:53:00
9:53 PM,66.9,59.0,76,29.96,10.0,WNW,3.5,-,N/A,,Clear,300,2013-09-24 04:53:00
10:53 PM,64.0,59.0,84,29.95,10.0,SW,3.5,-,N/A,,Clear,230,2013-09-24 05:53:00
11:53 PM,66.0,57.9,75,29.95,10.0,Calm,Calm,-,N/A,,Clear,0,2013-09-24 06:53:00